Temperature
4 5 5 5 5 5 4 4 4 5 5 7 6 6 7 8 8 7 7 7 7 7 7 7 7 7 7 7 7 7 7 7 7 7 7 6 6 6 6 6 6 6 6 6
4 4 4 4 5 5 5 5 5 5 5 6 7 7 7 7 7 7 7 7 7 7 7 7 7 7 7 7 7 7 7 7 7 6 6 6 6 6 6 6 6 6 5 5
3 4 4 4 5 5 5 5 5 5 6 6 5 5 6 6 6 6 6 6 6 6 6 6 6 6 6 6 6 6 6 6 6 6 6 6 6 6 6 5 5 5 5 5
3 3 3 6 6 5 5 5 5 5 5 5 5 6 6 6 6 6 6 6 6 6 6 6 6 6 6 6 6 6 6 6 6 5 5 5 5 5 5 5 5 5 5 5
2 2 3 5 5 5 4 4 5 4 5 5 5 5 5 6 6 6 6 6 5 5 5 5 5 5 5 5 5 5 5 5 5 5 5 5 5 5 5 4 4 4 4 4
2 3 3 5 5 6 5 4 5 4 4 4 4 3 4 6 5 5 5 5 5 5 5 5 5 4 4 5 5 5 5 4 4 4 4 4 4 4 4 4 4 4 4 4
2 2 3 4 5 5 4 4 5 5 5 4 4 4 5 5 5 5 5 5 4 4 4 4 4 4 4 4 4 4 4 4 4 4 3 3 3 3 3 3 3 3 3 3
2 2 3 4 4 4 4 5 5 5 5 5 5 5 5 5 4 4 4 4 4 4 4 4 4 3 3 3 3 3 3 3 3 3 3 3 3 3 3 3 3 3 3 3
2 4 4 5 5 6 6 5 5 5 5 5 5 4 4 4 4 4 4 3 3 3 3 3 3 3 3 3 3 3 3 3 3 3 3 2 2 2 2 2 2 2 3 3
1 2 4 5 5 5 5 5 5 5 5 4 4 4 4 3 3 3 3 3 3 3 3 3 3 3 3 3 2 2 2 2 2 2 2 2 2 2 2 2 2 2 2 2
1 2 3 4 5 5 5 4 4 4 4 4 3 3 3 3 3 3 3 3 3 2 2 3 3 2 2 2 2 2 2 2 1 1 1 1 1 2 2 2 2 2 2 2
2 3 2 3 4 4 4 4 3 3 3 3 3 3 2 2 2 2 2 2 2 2 2 2 2 2 2 2 1 1 1 1 1 1 1 1 1 1 1 1 1 1 1 1
3 3 3 3 3 3 3 3 3 2 2 2 2 2 2 1 1 1 2 2 2 2 2 2 2 2 1 1 1 1 1 1 1 0 0 1 1 1 1 1 1 1 1 1
2 2 2 2 2 2 2 2 1 1 1 1 1 1 1 1 1 1 1 1 1 1 1 1 1 1 1 1 0 0 0 0 0 -0 -0 0 0 0 0 0 0 1 1 1
1 1 1 1 1 1 1 1 1 1 1 1 0 0 0 0 0 0 0 0 0 0 1 1 0 1 0 0 -0 -0 -0 -0 -0 -0 -1 -1 -0 -0 -0 -0 -0 -0 0 0
1 1 1 1 1 1 0 0 0 0 0 -0 -0 -0 -0 -0 -0 -0 -0 -0 -0 -0 0 0 0 -0 -0 -0 -0 -1 -1 -1 -1 -1 -1 -1 -1 -1 -1 -1 -1 -1 -1 -0
0 0 0 0 0 0 -0 -0 -0 -0 -1 -1 -0 -0 -1 -1 -1 -1 -0 -1 -1 -1 -0 -0 -0 -1 -1 -1 -1 -1 -1 -1 -1 -1 -1 -1 -1 -1 -1 -1 -1 -1 -1 -1
0 -0 -0 -0 -0 -1 -1 -1 -1 -1 -1 -1 -1 -1 -1 -1 -1 -1 -1 -1 -1 -1 -1 -1 -1 -1 -1 -1 -1 -1 -2 -2 -2 -2 -2 -1 -1 -1 -1 -2 -1 -1 -1 -1
-0 -1 -1 -1 -1 -1 -1 -1 -1 -1 -1 -2 -2 -2 -2 -2 -2 -2 -2 -2 -2 -1 -1 -1 -1 -2 -2 -2 -2 -2 -2 -2 -2 -2 -2 -2 -2 -2 -2 -2 -2 -2 -2 -2
-1 -1 -1 -1 -1 -1 -2 -2 -2 -2 -2 -2 -2 -2 -2 -2 -2 -2 -2 -2 -2 -2 -2 -2 -2 -2 -2 -2 -2 -2 -2 -2 -2 -2 -2 -2 -2 -2 -2 -2 -2 -2 -2 -2
-1 -1 -1 -2 -2 -2 -2 -2 -2 -2 -2 -2 -2 -2 -2 -2 -2 -3 -3 -3 -2 -2 -2 -2 -2 -2 -2 -3 -3 -3 -3 -3 -3 -3 -3 -3 -3 -3 -3 -2 -2 -2 -2 -2
-2 -2 -2 -2 -2 -2 -2 -2 -2 -2 -2 -2 -2 -3 -3 -3 -3 -3 -3 -3 -2 -3 -3 -3 -3 -3 -3 -3 -3 -3 -3 -3 -3 -3 -3 -3 -3 -3 -3 -3 -2 -2 -2 -2
-2 -2 -2 -2 -2 -2 -2 -2 -2 -2 -3 -3 -3 -3 -3 -3 -3 -3 -3 -3 -3 -3 -3 -3 -3 -3 -3 -3 -3 -3 -3 -3 -3 -3 -3 -3 -3 -3 -3 -3 -3 -3 -2 -2
-3 -3 -3 -3 -3 -3 -3 -3 -3 -3 -3 -3 -3 -3 -3 -4 -3 -3 -4 -3 -3 -3 -3 -3 -3 -3 -4 -4 -4 -4 -3 -3 -3 -3 -3 -3 -3 -3 -3 -3 -3 -3 -3 -3
-3 -3 -3 -3 -3 -3 -3 -3 -3 -3 -3 -3 -3 -3 -4 -4 -4 -4 -4 -4 -4 -4 -4 -4 -4 -4 -4 -4 -4 -4 -4 -4 -4 -3 -3 -3 -3 -3 -3 -3 -3 -3 -3 -3
-3 -3 -3 -3 -4 -4 -4 -4 -4 -4 -4 -4 -4 -4 -4 -4 -4 -4 -4 -4 -4 -4 -4 -4 -4 -4 -4 -4 -4 -4 -4 -4 -4 -4 -4 -4 -3 -3 -3 -3 -3 -3 -3 -3
-4 -4 -4 -4 -4 -4 -4 -4 -4 -4 -4 -4 -4 -4 -4 -4 -4 -4 -4 -4 -4 -4 -4 -4 -4 -4 -4 -4 -4 -4 -4 -4 -4 -4 -4 -4 -4 -4 -4 -4 -4 -4 -4 -4
Wind_Speed
10 9 7 9 11 10 12 11 11 10 11 14 10 8 7 5 4 3 4 4 4 4 5 5 5 5 5 6 6 5 5 6 8 7 7 6 7 7 6 6 7 6 6 7
8 9 10 13 15 15 15 14 16 15 15 12 9 6 6 5 4 4 5 5 5 5 5 5 6 6 6 6 6 5 5 7 7 6 6 6 7 7 6 6 6 6 6 7
6 6 6 11 12 13 9 8 10 15 14 7 6 6 5 4 4 4 5 5 5 5 6 6 6 6 6 7 6 5 6 7 6 6 6 7 6 6 6 7 6 6 7 7
4 2 10 9 4 7 9 9 10 9 6 5 6 4 3 4 3 4 5 5 6 5 6 6 6 6 6 6 5 6 6 6 6 6 6 6 6 6 7 6 6 7 7 7
4 6 9 9 5 4 6 6 5 7 7 4 2 2 4 3 3 5 5 6 6 6 6 6 7 7 6 6 5 5 6 6 6 6 6 6 6 7 6 6 6 7 6 7
5 5 8 6 3 1 2 5 3 3 5 4 1 2 6 5 5 6 6 6 6 6 6 6 7 6 5 6 6 6 7 7 6 6 6 7 7 7 5 6 7 7 7 7
9 8 9 6 2 3 3 6 3 3 4 4 4 7 6 6 6 7 7 7 7 6 6 7 7 6 6 7 8 8 7 6 6 6 6 7 6 5 6 6 6 6 7 7
7 8 10 4 4 5 6 4 4 5 5 6 7 8 8 7 7 7 8 8 7 7 7 8 7 6 7 9 9 7 6 6 6 6 6 5 5 6 5 5 6 6 6 6
9 9 5 5 7 7 5 6 6 6 6 6 7 8 9 8 8 8 8 8 7 7 8 8 7 6 8 9 7 6 6 7 7 6 6 5 6 6 5 5 6 6 6 6
7 9 8 7 7 6 6 7 7 7 7 7 8 9 9 9 8 8 8 8 7 7 8 8 8 7 8 8 7 6 7 7 6 6 6 6 5 6 6 6 6 6 6 6
9 9 8 8 7 8 8 7 8 8 8 9 9 9 9 9 9 8 8 7 7 7 8 10 9 9 8 7 6 7 7 7 6 6 6 6 6 6 7 8 8 8 7 7
11 9 8 10 8 8 8 9 9 9 8 8 8 10 9 9 8 8 8 8 8 8 9 10 9 9 9 7 6 7 7 7 6 6 6 6 6 6 9 10 12 13 13 10
13 12 11 11 10 8 9 9 8 8 9 10 9 8 9 9 8 8 8 9 9 10 10 10 9 10 9 7 7 7 8 8 6 6 6 6 6 6 6 6 9 12 13 13
10 9 10 9 9 8 7 7 7 7 8 8 8 7 7 8 8 9 9 9 9 10 10 9 9 10 9 8 8 8 8 9 8 7 7 7 6 6 6 6 6 5 7 11
8 7 8 7 7 7 6 5 6 7 8 8 7 7 7 8 10 10 10 10 9 9 10 9 10 11 9 8 8 9 8 7 7 6 7 7 6 6 6 6 6 5 4 5
7 7 7 6 7 7 6 7 7 9 9 9 9 9 9 9 10 11 10 9 9 10 11 10 11 11 9 8 8 8 8 10 9 7 6 6 6 6 6 6 6 6 6 5
6 7 6 6 7 7 7 8 8 9 9 10 11 10 10 10 10 11 11 10 10 11 11 10 11 10 8 8 8 7 7 8 9 7 6 7 6 7 7 7 7 7 6 7
7 7 6 6 7 8 8 8 8 9 9 10 10 9 9 10 11 12 11 10 10 11 11 10 10 9 9 9 8 6 6 7 6 7 7 6 7 6 6 7 7 7 6 6
5 6 7 7 8 7 8 9 9 8 9 9 9 10 11 11 11 11 11 10 11 12 11 9 11 10 8 9 8 6 6 7 7 7 6 8 8 6 6 7 7 7 6 5
6 7 7 8 8 8 9 9 10 10 10 10 10 11 11 11 11 10 10 11 11 10 10 10 9 8 8 8 8 6 7 7 7 7 6 6 6 7 7 7 7 7 6 6
9 9 9 9 10 10 10 10 10 11 11 10 10 11 12 12 11 10 10 11 11 9 9 12 8 7 7 7 8 6 6 7 7 6 6 7 6 6 6 6 6 6 6 6
9 9 11 11 11 11 11 10 10 11 12 11 11 11 11 12 11 10 11 10 10 11 9 7 7 9 10 10 6 6 7 7 7 6 6 6 6 6 7 6 6 6 5 5
11 11 11 11 11 12 12 11 10 10 11 12 12 12 12 11 9 9 11 8 7 11 9 8 10 13 14 8 6 6 7 7 7 6 6 6 6 6 6 6 6 5 5 5
12 12 12 11 10 10 12 12 11 10 11 11 11 11 11 10 9 8 9 12 13 13 9 10 14 14 12 6 6 6 6 6 6 6 6 5 5 5 5 5 5 5 5 5
12 12 11 11 10 10 11 11 11 10 10 10 10 10 9 8 9 9 8 9 12 12 8 10 13 13 8 6 6 6 6 6 6 5 5 5 5 5 5 5 5 5 5 5
12 11 11 11 10 9 9 8 9 9 9 10 9 8 7 7 8 8 8 8 9 11 8 7 7 8 6 6 6 6 5 6 6 5 5 5 5 5 4 4 5 5 4 4
10 10 9 9 9 8 8 8 9 10 9 9 10 9 8 7 7 7 8 7 7 7 6 6 5 5 5 5 5 4 4 4 4 4 4 4 4 4 4 4 4 4 4 4
Wind_Direction
252 261 255 250 250 231 220 219 228 246 247 260 261 261 264 266 269 274 283 290 289 287 287 288 290 285 277 274 271 262 255 251 251 250 247 244 244 243 241 239 239 240 244 241
267 258 260 263 255 244 239 235 239 253 262 260 264 256 260 263 261 266 276 284 287 291 292 289 286 284 283 280 276 265 256 256 257 255 252 249 247 244 241 240 239 238 241 238
264 279 301 264 244 229 226 222 217 238 250 258 264 256 250 253 246 255 273 285 289 292 285 283 282 279 277 273 275 267 260 262 260 254 252 251 248 245 242 242 242 243 244 237
259 283 249 246 223 210 222 240 227 238 252 247 249 249 245 230 224 262 279 285 287 289 289 287 283 284 280 279 278 269 264 263 260 255 254 254 247 246 245 242 242 244 246 239
221 245 270 283 268 206 208 260 234 235 254 265 280 343 296 257 241 253 264 269 269 269 273 284 289 287 288 287 284 277 271 268 265 256 255 254 251 250 246 242 245 243 244 239
211 233 247 252 272 250 125 263 260 216 235 243 182 289 275 271 271 268 269 272 274 277 280 285 285 285 287 286 286 279 273 269 265 259 255 254 252 249 247 242 245 245 247 240
224 235 257 257 243 106 194 252 269 234 228 222 227 235 254 268 271 269 275 278 279 282 283 280 282 284 280 280 275 273 273 269 264 259 255 253 252 249 248 247 247 246 248 245
208 226 247 222 146 192 233 258 258 250 236 231 245 259 266 269 273 279 281 280 280 280 280 279 277 273 274 273 273 275 275 271 268 264 260 257 249 253 249 243 246 249 250 252
208 227 249 204 218 239 235 248 253 243 242 239 253 263 268 270 271 272 272 274 274 272 279 281 275 263 268 274 278 279 278 273 270 269 262 252 245 249 251 241 241 247 244 249
247 260 267 264 260 258 245 249 250 245 250 249 253 260 266 268 269 268 269 270 272 275 278 281 280 272 266 273 276 273 274 275 271 267 267 260 250 242 242 240 240 242 241 244
258 272 285 273 256 256 264 262 261 262 259 254 255 260 261 265 266 267 269 269 267 268 272 276 280 279 275 272 270 268 269 271 268 262 260 260 254 243 239 239 235 234 237 234
256 254 254 269 269 265 267 266 263 267 272 265 255 260 262 264 266 267 271 271 271 270 270 273 275 276 275 269 262 262 270 269 265 262 260 257 258 267 249 244 250 243 237 234
256 266 266 271 275 273 269 268 266 263 264 269 268 263 265 268 269 269 271 270 268 269 270 273 275 276 275 268 262 259 261 265 265 259 257 255 250 251 269 269 254 246 241 237
261 266 269 270 273 279 273 272 277 280 276 271 271 271 270 273 275 273 273 271 270 271 272 272 273 274 273 269 265 263 262 262 261 257 253 251 246 243 244 253 265 266 248 238
265 251 252 264 270 275 271 273 283 286 287 285 279 276 273 274 276 278 279 278 276 275 275 274 274 276 275 268 265 264 264 264 259 255 251 248 244 241 242 243 247 253 260 249
261 260 254 257 261 267 270 269 270 274 278 277 277 276 273 272 275 278 282 281 276 275 274 273 273 274 273 268 266 266 263 261 260 258 251 247 242 239 240 241 242 240 240 239
251 264 264 266 270 273 271 267 268 274 280 279 279 280 281 283 283 283 284 280 271 270 270 268 270 274 271 265 263 263 264 263 257 257 250 246 243 239 238 238 237 238 239 230
236 243 249 254 265 275 279 276 274 277 278 280 283 285 284 282 281 282 284 285 284 281 274 265 264 268 268 264 260 258 257 258 254 253 252 247 245 239 237 238 237 236 239 233
259 258 265 268 270 273 276 278 279 278 279 282 282 280 278 276 276 278 282 283 283 283 282 276 274 271 267 262 259 257 255 256 257 255 252 253 252 241 237 239 238 232 228 226
281 278 277 278 278 274 275 278 281 283 283 281 281 282 282 281 279 278 278 277 272 269 275 279 280 272 265 260 256 253 251 253 254 254 252 248 246 245 241 239 237 232 228 224
282 282 282 283 284 281 277 278 280 282 284 282 280 280 282 284 282 279 279 283 280 273 272 275 273 267 263 260 258 253 249 251 251 250 250 250 248 245 242 239 235 232 227 222
279 280 282 284 284 285 284 280 277 278 281 282 280 279 282 285 285 282 271 268 276 280 281 274 270 266 265 267 257 252 251 251 251 248 247 247 245 243 242 237 234 231 225 220
274 275 278 278 278 279 283 282 277 276 277 278 279 280 279 278 279 279 285 279 274 278 278 270 270 271 273 270 257 252 252 252 251 248 247 246 243 240 239 235 231 225 220 217
274 275 275 276 277 279 281 282 279 276 274 275 274 272 273 279 281 270 266 277 281 281 276 272 273 274 274 263 254 252 251 250 249 247 247 245 242 238 235 232 226 221 217 212
271 273 275 277 278 278 277 280 284 282 279 280 277 273 269 263 268 278 276 273 276 280 277 275 275 274 268 253 248 248 248 247 246 244 241 242 239 235 230 224 221 218 216 213
269 272 272 269 268 273 277 278 280 282 284 286 286 281 275 271 267 270 274 272 270 276 274 271 268 268 257 250 246 244 244 250 253 247 241 241 237 229 223 219 214 214 211 208
269 270 273 275 273 269 268 270 273 278 279 279 283 284 281 279 275 274 273 274 275 274 270 268 264 259 255 250 245 242 242 243 242 240 238 235 228 222 216 211 212 208 202 200
Height
1512 1508 1508 1506 1504 1504 1505 1504 1504 1494 1490 1480 1479 1478 1477 1476 1475 1475 1474 1473 1472 1471 1470 1469 1468 1466 1465 1464 1463 1462 1460 1459 1458 1457 1457 1455 1454 1453 1453 1452 1451 1451 1450 1449
1509 1504 1504 1501 1495 1494 1493 1492 1490 1487 1482 1475 1475 1474 1474 1473 1472 1471 1471 1470 1469 1468 1466 1465 1464 1462 1461 1460 1458 1457 1455 1454 1453 1452 1451 1450 1449 1448 1447 1446 1445 1445 1444 1444
1508 1504 1501 1495 1483 1482 1483 1480 1480 1480 1474 1471 1471 1471 1470 1470 1469 1469 1468 1467 1466 1464 1463 1462 1460 1458 1456 1455 1453 1452 1450 1449 1448 1446 1445 1444 1443 1442 1441 1440 1440 1439 1438 1438
1506 1506 1502 1478 1472 1472 1474 1472 1472 1469 1467 1467 1467 1467 1467 1467 1466 1466 1465 1464 1462 1461 1459 1457 1456 1454 1452 1450 1448 1446 1445 1443 1442 1441 1440 1439 1437 1436 1435 1434 1434 1433 1432 1432
1503 1501 1489 1476 1469 1469 1471 1469 1466 1466 1465 1465 1465 1465 1464 1464 1464 1463 1462 1460 1458 1457 1454 1453 1451 1449 1447 1444 1443 1441 1439 1438 1436 1435 1434 1433 1432 1431 1430 1429 1428 1427 1427 1426
1498 1496 1487 1471 1466 1464 1467 1468 1462 1462 1462 1463 1463 1466 1462 1460 1460 1458 1457 1456 1454 1452 1449 1447 1446 1444 1442 1439 1437 1435 1434 1432 1431 1430 1428 1427 1426 1425 1424 1423 1422 1421 1420 1420
1491 1488 1477 1466 1464 1464 1471 1465 1460 1459 1459 1459 1460 1459 1458 1456 1455 1454 1452 1450 1448 1446 1444 1442 1440 1438 1436 1434 1432 1430 1428 1427 1425 1424 1422 1421 1420 1419 1419 1417 1416 1415 1415 1414
1484 1483 1474 1460 1462 1464 1461 1457 1456 1456 1455 1455 1454 1453 1452 1451 1449 1448 1446 1444 1443 1441 1438 1437 1435 1433 1430 1428 1427 1425 1423 1421 1419 1418 1416 1415 1414 1413 1412 1411 1410 1409 1408 1408
1470 1465 1457 1456 1456 1455 1455 1454 1453 1452 1451 1451 1450 1448 1447 1445 1443 1442 1441 1439 1437 1435 1433 1431 1429 1427 1425 1422 1421 1419 1416 1414 1413 1411 1410 1409 1408 1407 1406 1405 1404 1403 1403 1402
1463 1457 1454 1453 1452 1451 1451 1450 1448 1448 1447 1446 1444 1443 1441 1439 1438 1436 1434 1433 1431 1429 1427 1425 1423 1421 1419 1417 1415 1413 1410 1408 1406 1405 1403 1403 1402 1401 1400 1399 1398 1397 1397 1396
1457 1453 1450 1447 1447 1447 1446 1445 1444 1443 1441 1440 1439 1437 1435 1433 1432 1430 1428 1427 1425 1423 1421 1418 1417 1415 1413 1411 1408 1406 1404 1402 1400 1399 1397 1396 1395 1394 1393 1393 1393 1392 1391 1391
1450 1447 1447 1443 1442 1442 1440 1439 1438 1436 1435 1433 1433 1430 1429 1427 1425 1424 1422 1420 1418 1416 1414 1412 1410 1407 1406 1404 1402 1400 1397 1395 1394 1392 1390 1389 1388 1387 1386 1387 1386 1386 1386 1386
1442 1441 1440 1438 1437 1436 1434 1433 1432 1430 1429 1427 1426 1424 1422 1420 1418 1417 1415 1413 1411 1409 1407 1405 1403 1400 1399 1397 1395 1393 1391 1389 1387 1385 1384 1383 1381 1380 1379 1379 1379 1379 1379 1379
1436 1435 1433 1432 1430 1429 1428 1427 1426 1424 1422 1421 1419 1417 1415 1413 1411 1410 1408 1406 1404 1402 1400 1397 1395 1393 1391 1390 1388 1386 1384 1382 1380 1378 1377 1376 1375 1374 1373 1372 1372 1371 1372 1373
1430 1429 1428 1426 1425 1424 1423 1421 1420 1418 1416 1414 1413 1411 1409 1407 1404 1402 1401 1399 1397 1394 1392 1390 1387 1385 1384 1382 1380 1378 1376 1374 1373 1371 1370 1369 1368 1368 1367 1366 1366 1365 1366 1366
1424 1423 1422 1420 1419 1418 1417 1416 1414 1412 1410 1408 1406 1404 1402 1400 1397 1395 1393 1391 1389 1387 1384 1382 1380 1378 1377 1375 1372 1370 1369 1367 1366 1364 1363 1362 1361 1361 1360 1360 1359 1359 1359 1360
1419 1417 1416 1415 1414 1413 1412 1410 1409 1406 1404 1402 1399 1397 1395 1393 1390 1388 1386 1384 1382 1379 1377 1375 1372 1371 1369 1367 1365 1363 1361 1359 1358 1357 1356 1355 1354 1354 1353 1353 1353 1353 1353 1354
1414 1413 1413 1411 1410 1408 1406 1404 1402 1400 1398 1396 1393 1391 1388 1386 1383 1380 1378 1376 1374 1371 1369 1367 1365 1363 1361 1359 1357 1355 1353 1352 1351 1349 1348 1348 1347 1347 1346 1346 1346 1346 1347 1348
1411 1410 1408 1407 1405 1403 1401 1399 1396 1394 1392 1390 1387 1384 1381 1379 1376 1373 1371 1368 1365 1362 1360 1359 1357 1355 1353 1351 1350 1348 1346 1345 1343 1342 1341 1341 1340 1340 1340 1340 1340 1340 1341 1341
1407 1406 1404 1401 1399 1398 1395 1393 1390 1388 1385 1383 1380 1377 1374 1371 1369 1366 1363 1360 1357 1355 1352 1351 1349 1347 1345 1344 1343 1341 1339 1338 1336 1335 1334 1334 1333 1333 1333 1333 1334 1334 1334 1335
1403 1401 1398 1396 1393 1391 1389 1387 1384 1381 1378 1376 1373 1370 1366 1363 1361 1358 1355 1351 1348 1347 1345 1343 1341 1339 1338 1336 1335 1334 1332 1331 1330 1329 1328 1328 1327 1327 1327 1327 1327 1328 1329 1330
1397 1395 1392 1390 1387 1384 1382 1380 1377 1374 1371 1368 1366 1362 1359 1356 1353 1350 1347 1344 1341 1340 1337 1335 1334 1332 1331 1329 1328 1327 1325 1324 1323 1322 1322 1321 1321 1321 1321 1321 1322 1322 1323 1324
1391 1389 1386 1383 1381 1377 1374 1372 1370 1367 1364 1361 1358 1354 1351 1348 1345 1342 1338 1336 1334 1332 1330 1328 1326 1325 1324 1322 1321 1320 1319 1318 1317 1316 1316 1316 1316 1316 1316 1316 1316 1317 1318 1319
1383 1381 1378 1376 1373 1370 1366 1363 1361 1359 1356 1352 1350 1347 1344 1340 1337 1334 1331 1328 1326 1324 1322 1321 1319 1318 1317 1315 1314 1313 1312 1311 1311 1310 1310 1310 1310 1310 1310 1311 1311 1312 1313 1314
1375 1373 1370 1367 1364 1361 1358 1355 1352 1349 1347 1344 1341 1338 1336 1333 1330 1326 1324 1321 1319 1317 1315 1314 1313 1311 1310 1309 1308 1307 1306 1306 1305 1305 1305 1304 1304 1305 1305 1306 1306 1307 1308 1309
1367 1364 1362 1359 1356 1353 1350 1347 1344 1341 1338 1335 1332 1330 1328 1325 1322 1319 1317 1314 1312 1310 1308 1307 1306 1304 1303 1302 1302 1301 1301 1300 1300 1299 1299 1299 1299 1300 1300 1301 1301 1302 1303 1304
1357 1355 1352 1349 1347 1345 1342 1339 1336 1333 1331 1328 1325 1322 1320 1318 1315 1312 1310 1308 1305 1304 1302 1300 1299 1298 1297 1297 1296 1296 1295 1295 1295 1294 1294 1294 1294 1295 1295 1296 1297 1298 1299 1300